Location: Unspecified
(41.9031°N, 12.4386°E)
Time: 13:14:34
(UTC+01:00)

ISS - Visible Passes

Search period start: 03 December 2022 00:00
Search period end: 13 December 2022 00:00
Orbit: 414 x 420 km, 51.6° (Epoch: 03 December)

Date Brightness Start Highest point End Pass type
(mag) Time Alt. Az. Time Alt. Az. Time Alt. Az.
03 Dec -3.1 17:53:16 10° NW 17:56:24 36° NNE 17:57:24 28° ENE visible
03 Dec -0.3 19:30:06 10° WNW 19:30:21 12° WNW 19:30:21 12° WNW visible
04 Dec -3.0 18:41:48 10° WNW 18:44:44 52° WSW 18:44:44 52° WSW visible
05 Dec -3.9 17:53:37 10° NW 17:56:59 85° NE 17:59:22 18° ESE visible
05 Dec -0.3 19:32:04 10° WSW 19:32:22 11° WSW 19:32:22 11° WSW visible
06 Dec -1.2 18:42:48 10° W 18:45:18 20° SW 18:47:22 12° S visible
07 Dec -2.0 17:54:12 10° WNW 17:57:15 33° SW 18:00:17 10° SSE visible
09 Dec -0.4 17:55:48 10° WSW 17:57:14 12° SW 17:58:39 10° SSW visible
